Погода в Исландии

США     40°48′34″N   73°10′56″W
темп.,
°C
ветер,
м/с
пор.,
м/с
влажн.,
%
обл.,
%
осадки,
мм/ч
давл.,
гПа
погр.,
м
20 апреля, вт
вт2023:00+12юз49705 0.1 1011320
02:00+11з37730 0.1 1012180
05:00+10зюз26751 0.0 1012128
08:00+12зюз49675 0.0 1013305
11:00+16зюз5947100 0.0 1014897
14:00+19зюз610393 0.0 10141783
17:00+18юз594517 0.0 10141558
20:00+15юз245557 0.0 1015301
21 апреля, ср
ср2123:00+13ююз3567100 0.0 1015186
02:00+12ююз41175100 0.0 1014427
05:00+11ю51678100 0.0 1012524
08:00+13ю7177494 0.0 1010660
11:00+14ююз81669100 0.1 1008858
14:00+15ю81670100 0.3 1003844
17:00+12зсз81576100 1.6 1001794
20:00+6зсз9146127 2.4 10041001
22 апреля, чт
чт2223:00+4зсз815512 0.0 10071151
02:00+3зсз714575 0.0 10071290
05:00+2зсз813525 0.0 10081135
08:00+3зсз813495 0.0 10111347
11:00+6зсз81431100 0.0 10112476
14:00+9зсз91429100 0.0 10102991
17:00+10зсз9162999 0.0 10112948
20:00+8зсз617405 0.0 10132326
23 апреля, пт
пт2323:00+6з6134273 0.0 10141786
02:00+6з6134621 0.0 10141374
05:00+5з71552100 0.0 10141096
08:00+6з81554100 0.0 1014932
11:00+11з8144286 0.0 10141912
14:00+12зсз7134467 0.0 10141691
17:00+14сз6124343 0.0 10141575
20:00+14зсз511465 0.0 10151285
24 апреля, сб
сб2423:00+12зсз511550 0.0 1016808
02:00+11з512574 0.0 1017505
05:00+10зсз411560 0.0 1017388
08:00+11з474887 0.0 1018323
11:00+15з46361 0.0 10181168
14:00+17юз463099 0.0 10171805
17:00+15ююз6844100 0.0 1016627
20:00+12ююз51161100 0.0 1016283